CAPE
0 0 0 0 0 0 0 0 0 0 0 0 0 9 1 36 935 1526 1368 1852 1756 1901 2038 2355 2707 2565 2360 2091 1855 1667 1557 1585 1609 1528 1353 1140 1709 1700 1861 1732 1724 1828 1922 1449 1296 918 641 428 199
0 0 0 0 0 0 0 0 0 0 0 0 0 24 15 35 74 1201 1537 1777 1865 1652 1504 2133 2675 2616 2425 2079 1812 1627 1565 1666 1652 1504 1381 1183 1680 1751 1877 1863 1809 1777 1416 1259 1095 823 549 388 242
0 0 0 0 0 0 0 0 0 0 0 0 0 0 7 6 29 1290 1717 1937 1814 1429 1496 2317 2610 2533 2423 2121 1788 1601 1608 1695 1581 1393 1420 1272 1637 1728 1786 1943 1859 1744 1118 884 616 429 560 390 266
0 0 0 0 0 0 0 0 0 0 0 0 0 0 0 0 0 1284 1786 2553 1896 1585 1991 2449 2541 2474 2381 2155 1846 1666 1682 1741 1708 1553 1549 1404 1679 1705 1717 1837 1831 1682 1213 684 509 652 735 573 380
0 0 0 0 0 0 0 0 0 0 0 0 0 0 0 0 0 1467 1774 2917 2316 1959 2003 2230 2543 2504 2396 2211 1963 1798 1777 1752 1763 1684 1590 1532 1688 1649 1727 1789 1887 1678 1461 963 531 724 672 662 589
0 0 0 0 0 0 0 0 0 0 0 0 0 0 0 0 0 61 1092 2314 2478 2103 1975 2022 2519 2488 2343 2179 1995 1879 1785 1745 1758 1693 1651 1637 1655 1668 1756 1870 1879 1712 1472 1158 875 832 655 506 463
0 0 0 0 0 0 0 0 0 0 0 0 0 0 0 0 0 0 190 1696 2319 2061 1762 1821 2143 2347 2383 2188 2025 1936 1785 1714 1657 1581 1578 1554 1561 1606 1722 1739 1797 1657 1379 1048 863 794 744 609 547
0 0 0 0 0 0 0 0 0 0 0 0 0 0 0 0 0 0 0 434 2307 2152 1768 1592 1849 2025 2030 2061 2186 1987 1848 1742 1577 1578 1572 1546 1543 1547 1656 1485 1622 1641 1451 1110 843 703 633 559 483
0 0 0 0 0 0 0 0 0 0 0 0 0 0 0 0 0 0 0 0 504 2598 1963 1310 1531 1576 1598 1674 1973 2011 1956 1854 1658 1609 1577 1363 1172 1299 1477 1341 1651 1661 1503 1168 890 654 503 409 385
0 0 0 0 0 0 0 0 0 0 0 0 0 0 0 0 0 0 0 0 0 1662 2467 1341 927 989 888 1423 1572 1536 1548 1565 1367 1240 1252 974 594 873 1005 1050 1582 1617 1484 1210 923 677 506 393 0
0 0 0 0 0 0 0 0 0 0 0 0 0 0 0 0 0 0 0 0 0 3 2307 1190 877 679 423 492 1336 1223 1154 1158 1147 1017 958 675 458 447 517 427 1160 1152 1284 746 654 398 166 2 0
0 0 0 0 0 0 0 0 0 0 0 0 0 0 0 0 0 0 0 0 0 0 1416 1443 1071 911 494 497 890 632 747 802 968 975 846 672 365 187 193 126 645 805 780 412 178 6 0 0 0
0 0 0 0 0 0 0 0 0 0 0 0 0 0 0 0 0 0 0 0 0 0 0 1881 2025 2090 2169 916 681 313 248 456 564 658 613 731 427 102 112 128 327 613 483 358 40 0 0 0 0
0 0 0 0 0 0 0 0 0 0 0 0 0 0 0 0 0 0 0 0 0 0 0 0 190 2233 2245 1723 1580 780 256 292 236 296 371 635 334 132 220 8 265 419 488 335 75 0 0 0 0
0 0 0 0 0 0 0 0 0 0 0 0 0 0 0 0 0 0 0 0 0 0 0 0 0 0 40 2127 2058 1782 1881 1552 427 338 221 427 384 72 283 121 261 527 445 318 72 3 0 0 0
0 0 0 0 0 0 0 0 0 0 0 0 0 0 0 0 0 0 0 0 0 0 0 0 0 0 0 1714 2063 1943 1404 1389 1457 1033 405 357 389 183 73 496 166 349 515 300 249 1 2 0 0
0 0 0 0 0 0 0 0 0 0 0 0 0 0 0 0 0 0 0 0 0 0 0 0 0 0 0 0 0 5 393 1366 1677 1522 1277 511 356 588 192 541 585 258 309 370 240 11 0 0 0
0 0 0 0 0 0 0 0 0 0 0 0 0 0 0 0 0 0 0 0 0 0 0 0 0 0 0 0 0 0 0 4 697 1123 1375 1149 497 441 788 682 574 407 576 373 141 149 18 0 0
0 0 0 0 0 0 0 0 0 0 0 0 0 0 0 0 0 0 0 0 0 0 0 0 0 0 0 0 0 0 0 0 0 657 1143 1191 937 866 435 793 329 664 478 426 188 71 36 26 13
0 0 0 0 0 0 0 0 0 0 0 0 0 0 0 0 0 0 0 0 0 0 0 0 0 0 0 8 0 0 0 0 0 0 98 1464 924 872 1029 718 660 428 563 396 361 232 185 35 5
0 0 0 0 0 0 0 0 0 0 0 0 0 0 0 0 0 0 0 0 0 0 0 0 0 26 9 25 2 0 0 0 0 0 0 1164 1416 1019 957 898 666 488 293 397 774 271 127 88 20
0 0 0 0 0 0 0 0 0 0 0 0 0 0 0 0 0 0 0 0 0 0 0 0 27 70 53 41 30 0 0 0 0 0 0 529 1021 181 798 809 701 165 1 283 724 458 130 8 28
0 0 0 0 0 0 0 0 0 0 0 0 0 0 0 0 0 0 0 0 0 0 0 2 50 0 14 0 0 13 10 2 0 0 0 236 621 499 1125 1077 1085 946 849 414 307 383 248 306 59
0 0 0 0 0 0 0 0 0 0 0 0 0 0 0 0 0 0 0 0 0 0 0 0 34 22 30 23 0 0 0 50 109 182 329 405 184 720 672 865 926 1080 745 361 254 201 361 422 497
0 0 0 0 0 0 0 0 0 0 0 0 0 0 0 0 0 0 0 0 0 0 0 0 0 0 0 17 1 0 0 0 2 91 410 484 405 30 0 0 175 934 1049 445 432 472 532 281 386
0 0 0 0 0 0 0 0 0 0 0 0 0 0 0 0 0 0 0 0 0 0 0 0 0 0 0 0 0 0 0 0 0 1 336 598 316 0 0 0 51 942 1430 1215 656 529 604 601 374
0 0 0 0 0 0 0 0 0 0 0 0 0 0 0 0 0 0 0 0 0 0 0 0 0 0 0 0 0 17 5 0 0 0 27 502 748 238 0 1 697 1306 1752 1662 1181 631 659 782 727
0 0 0 0 0 0 0 0 0 0 0 0 0 0 0 0 0 0 0 0 0 0 0 0 0 0 0 0 0 0 9 0 0 19 0 338 816 1121 1196 1199 1385 1373 1511 1384 1298 848 709 745 485
0 0 0 2 7 3 0 0 0 0 2 0 0 0 0 0 0 0 0 0 0 0 0 0 0 0 0 0 0 0 0 1 8 9 28 83 510 1034 1214 1400 1541 1558 1370 1300 1237 989 432 390 5
0 0 3 1 0 3 31 0 0 0 0 0 8 0 0 0 0 0 0 0 0 0 0 0 0 0 0 0 0 0 0 0 6 60 17 6 281 643 1162 1512 1546 1513 1349 1042 1153 465 173 1 0
CIN
0 0 0 0 0 0 0 0 0 0 0 0 0 -270 -59 -314 -146 -155 -241 -351 -461 -488 -412 -323 -233 -216 -208 -201 -197 -200 -186 -152 -133 -134 -147 -170 -55 -46 -18 -27 -16 -9 -1 -18 -18 -77 -123 -177 -256
0 0 0 0 0 0 0 0 0 0 0 0 0 -278 -310 -310 -331 -219 -170 -364 -410 -541 -521 -370 -230 -222 -212 -223 -236 -228 -196 -137 -120 -139 -143 -169 -63 -47 -18 -16 -23 -20 -45 -48 -54 -97 -157 -199 -256
0 0 0 0 0 0 0 0 0 0 0 0 0 0 -356 -94 -334 -187 -165 -357 -423 -530 -518 -328 -233 -212 -209 -222 -255 -265 -230 -156 -153 -168 -135 -139 -56 -39 -25 -9 -14 -15 -86 -112 -158 -203 -170 -208 -251
0 0 0 0 0 0 0 0 0 0 0 0 0 0 0 0 0 -202 -140 -301 -387 -428 -433 -300 -259 -225 -208 -214 -256 -267 -236 -177 -136 -145 -120 -133 -69 -42 -33 -14 -13 -16 -67 -160 -208 -149 -128 -168 -215
0 0 0 0 0 0 0 0 0 0 0 0 0 0 0 0 0 -161 -150 -189 -329 -379 -429 -357 -258 -237 -219 -217 -239 -246 -223 -198 -151 -132 -121 -112 -67 -65 -49 -29 -13 -25 -41 -113 -232 -167 -161 -157 -166
0 0 0 0 0 0 0 0 0 0 0 0 0 0 0 0 0 -108 -149 -115 -304 -459 -446 -407 -266 -240 -237 -233 -233 -239 -237 -208 -162 -137 -121 -104 -86 -75 -53 -37 -28 -30 -48 -99 -147 -152 -197 -208 -206
0 0 0 0 0 0 0 0 0 0 0 0 0 0 0 0 0 0 -159 -90 -273 -420 -519 -469 -367 -267 -213 -234 -241 -223 -230 -208 -183 -159 -133 -117 -91 -79 -73 -70 -49 -44 -80 -127 -169 -190 -201 -199 -202
0 0 0 0 0 0 0 0 0 0 0 0 0 0 0 0 0 0 0 -128 -223 -323 -475 -527 -434 -371 -319 -265 -222 -230 -224 -206 -212 -175 -154 -139 -111 -94 -78 -100 -66 -58 -77 -134 -202 -228 -243 -235 -237
0 0 0 0 0 0 0 0 0 0 0 0 0 0 0 0 0 0 0 0 -121 -204 -327 -499 -500 -472 -451 -356 -228 -195 -204 -198 -195 -173 -158 -181 -208 -159 -112 -137 -78 -61 -81 -137 -201 -258 -291 -298 -285
0 0 0 0 0 0 0 0 0 0 0 0 0 0 0 0 0 0 0 0 0 -100 -168 -315 -506 -489 -487 -365 -321 -285 -246 -216 -241 -258 -221 -272 -378 -269 -221 -220 -114 -87 -103 -147 -210 -275 -310 -335 0
0 0 0 0 0 0 0 0 0 0 0 0 0 0 0 0 0 0 0 0 0 -8 -132 -299 -422 -503 -525 -446 -335 -347 -317 -271 -258 -276 -283 -358 -429 -412 -369 -420 -203 -181 -141 -268 -296 -385 -502 -94 0
0 0 0 0 0 0 0 0 0 0 0 0 0 0 0 0 0 0 0 0 0 0 -119 -163 -219 -314 -392 -458 -418 -464 -449 -395 -324 -300 -307 -351 -452 -533 -526 -578 -324 -258 -262 -378 -498 -633 0 0 0
0 0 0 0 0 0 0 0 0 0 0 0 0 0 0 0 0 0 0 0 0 0 0 -85 -75 -68 -124 -251 -340 -506 -486 -468 -433 -389 -390 -318 -414 -568 -539 -562 -427 -304 -354 -406 -650 0 0 0 0
0 0 0 0 0 0 0 0 0 0 0 0 0 0 0 0 0 0 0 0 0 0 0 0 -94 -77 -65 -113 -136 -258 -385 -405 -457 -465 -456 -380 -438 -539 -478 -170 -455 -370 -336 -409 -567 0 0 0 0
0 0 0 0 0 0 0 0 0 0 0 0 0 0 0 0 0 0 0 0 0 0 0 0 0 0 -14 -73 -79 -81 -78 -69 -307 -397 -477 -431 -433 -596 -431 -497 -432 -346 -359 -401 -524 -75 0 0 0
0 0 0 0 0 0 0 0 0 0 0 0 0 0 0 0 0 0 0 0 0 0 0 0 0 0 0 -87 -67 -61 -109 -107 -45 -107 -309 -331 -316 -410 -493 -319 -423 -370 -309 -409 -352 -76 -528 0 0
0 0 0 0 0 0 0 0 0 0 0 0 0 0 0 0 0 0 0 0 0 0 0 0 0 0 0 0 0 -108 -88 -85 -63 -90 -94 -126 -234 -205 -330 -233 -252 -308 -277 -293 -397 -236 0 0 0
0 0 0 0 0 0 0 0 0 0 0 0 0 0 0 0 0 0 0 0 0 0 0 0 0 0 0 0 0 0 0 -8 -113 -60 -98 -72 -16 -52 -160 -213 -242 -238 -130 -208 -339 -352 -517 0 0
0 0 0 0 0 0 0 0 0 0 0 0 0 0 0 0 0 0 0 0 0 0 0 0 0 0 0 0 0 0 0 0 -1 -43 -50 -122 -99 -68 -318 -183 -244 -150 -171 -198 -272 -347 -395 -494 -508
0 0 0 0 0 0 0 0 0 0 0 0 0 0 0 0 0 0 0 0 0 0 0 0 0 0 0 -97 0 0 0 0 0 0 -98 -45 -130 -129 -90 -107 -61 -115 -117 -143 -183 -206 -308 -418 -344
0 0 0 0 0 0 0 0 0 0 0 0 0 0 0 0 0 0 0 0 0 0 0 0 0 -144 -108 -144 -75 0 0 0 0 0 0 -85 -80 -118 -156 -126 -99 -19 -83 -84 -95 -212 -237 -296 -436
0 0 0 0 0 0 0 0 0 0 0 0 0 0 0 0 0 0 0 0 0 0 0 0 -226 -166 -197 -191 -159 0 0 0 0 0 0 -101 -126 -183 -38 -99 -70 -225 -56 -39 -47 -146 -221 -129 -313
0 0 0 0 0 0 0 0 0 0 0 0 0 0 0 0 0 0 0 0 0 0 0 -220 -153 0 -246 0 0 -183 -186 -11 0 0 0 -69 -96 -142 -67 -118 -70 -54 -36 -17 -44 -107 -95 -136 -247
0 0 0 0 0 0 0 0 0 0 0 0 0 0 0 0 0 0 0 0 0 0 0 0 -84 -68 -87 -71 -15 0 0 -139 -119 -98 -77 -91 -179 -122 -149 -94 -80 -52 -80 -72 -38 -50 -78 -97 -105
0 0 0 0 0 0 0 0 0 0 0 0 0 0 0 0 0 0 0 0 0 0 0 0 0 0 0 -48 -20 0 0 -15 -41 -145 -54 -97 -72 -153 0 0 -175 -39 -46 -117 -96 -55 -24 -57 -82
0 0 0 0 0 0 0 0 0 0 0 0 0 0 0 0 0 0 0 0 0 0 0 0 0 0 0 0 0 0 0 0 0 -25 -65 -61 -105 0 0 0 -322 -88 -40 -58 -86 -91 -120 -89 -56
0 0 0 0 0 0 0 0 0 0 0 0 0 0 0 0 0 0 0 0 0 0 0 0 0 0 0 0 0 -52 -59 0 0 0 -158 -52 -68 -179 0 -13 -110 -49 -43 -31 -32 -107 -87 -79 -76
0 0 0 0 0 0 0 0 0 0 0 0 0 0 0 0 0 0 0 0 0 0 0 0 0 0 0 0 0 0 -31 0 0 -47 0 -52 -52 -35 -35 -52 -52 -61 -64 -64 -34 -63 -131 -75 -91
0 0 0 -28 -18 -3 -3 0 0 0 -42 0 0 0 0 0 0 0 0 0 0 0 0 0 0 0 0 0 0 0 0 -3 -63 -37 -70 -89 -47 -40 -62 -54 -46 -53 -94 -99 -78 -64 -142 -163 -28
0 0 -28 -15 0 -8 -4 0 0 0 0 0 -94 0 0 0 0 0 0 0 0 0 0 0 0 0 0 0 0 0 0 0 -31 -43 -41 -23 -68 -45 -51 -47 -48 -66 -79 -155 -115 -208 -243 -12 0
Wind_Speed
8 10 5 1 5 4 6 8 13 13 6 5 15 14 14 8 6 6 3 16 19 15 11 13 17 18 18 17 15 16 15 14 14 15 14 13 13 14 13 13 13 12 12 12 11 10 9 9 9
5 8 1 1 2 2 7 7 15 7 3 9 13 16 12 9 7 6 5 15 16 15 9 11 14 17 18 17 17 16 15 13 13 13 13 13 13 13 12 12 12 12 12 11 10 9 9 8 8
6 4 3 2 3 4 6 7 6 6 9 6 4 9 6 4 7 4 3 20 15 13 11 11 14 14 16 17 17 17 16 15 14 14 13 12 11 11 11 11 11 11 12 11 10 8 8 7 7
4 4 5 2 10 13 9 12 2 5 6 7 9 10 6 6 2 7 8 20 13 13 12 13 14 14 14 15 16 17 17 16 15 15 14 14 14 12 10 11 10 10 10 10 9 8 7 7 6
2 1 2 3 11 14 15 9 7 4 4 7 9 5 8 4 3 8 8 20 17 13 12 12 14 13 15 16 16 16 16 16 15 15 14 14 13 13 12 10 10 10 10 10 9 8 7 6 6
4 2 3 5 11 9 10 1 5 5 10 7 9 9 4 5 6 3 6 13 18 17 13 13 15 13 13 15 15 16 16 16 15 15 14 14 14 14 12 11 10 10 10 10 9 8 8 7 6
3 2 4 7 11 14 7 2 6 4 10 7 3 5 3 7 5 6 4 12 15 16 14 13 13 14 13 13 14 14 15 14 13 13 13 13 13 13 13 12 11 11 11 10 9 9 8 7 7
2 2 5 6 9 11 11 6 4 7 6 4 4 4 3 4 4 9 8 4 17 16 15 13 12 13 12 9 15 16 15 15 15 14 13 13 13 13 13 12 11 11 11 11 10 9 9 8 8
2 2 4 7 8 9 9 10 9 5 6 4 4 4 4 8 7 5 7 9 7 12 16 15 14 13 14 11 10 12 16 16 14 13 14 11 6 9 11 11 12 12 12 11 11 10 9 9 9
5 4 8 7 5 5 6 9 8 7 8 6 7 8 6 6 6 8 8 9 8 10 9 10 10 9 9 10 11 8 8 6 6 8 9 7 6 7 10 11 15 14 14 12 11 11 10 9 4
7 7 9 10 5 5 5 6 7 7 5 6 4 7 8 8 7 6 2 10 7 4 11 13 15 12 10 9 8 6 5 5 5 7 7 6 7 7 7 6 7 7 12 5 7 7 5 6 5
6 9 5 9 9 3 5 6 6 6 8 8 9 7 5 7 6 6 6 9 8 7 6 11 13 12 10 5 8 9 9 8 7 9 10 8 4 5 7 6 7 7 6 6 6 4 5 6 8
6 2 6 11 9 4 5 6 7 7 9 9 9 6 5 7 7 7 6 7 8 3 4 6 8 8 6 6 6 6 7 8 10 10 11 9 8 5 6 5 7 7 7 8 6 7 8 8 9
7 6 7 9 11 6 6 7 6 11 9 11 7 5 6 6 5 5 7 6 9 3 4 5 7 5 4 6 5 3 7 8 8 9 11 15 11 9 7 8 9 9 9 8 8 9 8 8 8
7 8 9 14 9 10 6 4 7 12 10 10 9 4 4 4 8 9 7 8 5 4 2 4 8 5 5 4 5 5 3 3 9 10 15 17 14 14 10 10 9 10 11 12 9 8 6 8 6
4 4 2 10 11 7 9 7 12 10 5 7 8 8 8 9 8 7 5 4 5 6 3 6 2 6 3 2 3 3 5 5 7 5 9 16 16 15 14 9 11 7 10 9 9 8 7 9 8
3 4 4 8 2 3 5 8 11 9 9 10 9 9 9 9 10 10 10 9 8 7 6 4 4 7 7 5 4 1 4 3 6 8 4 9 16 17 14 10 10 10 7 8 9 7 5 6 5
6 6 8 8 10 10 9 11 9 8 6 9 8 8 9 9 11 11 12 10 9 8 8 7 6 5 1 2 2 1 2 4 6 6 9 11 6 16 15 10 8 10 5 5 5 6 4 5 5
6 6 8 9 11 7 9 8 9 10 12 11 9 9 10 9 4 6 5 6 6 4 9 8 8 3 3 3 3 3 3 4 5 10 9 10 15 17 14 6 11 8 10 8 9 5 7 4 5
6 8 9 7 8 10 10 17 16 17 17 17 17 9 4 7 9 7 10 11 10 8 9 9 5 1 1 1 2 2 3 5 6 9 11 13 11 18 13 7 4 8 4 5 8 9 3 6 6
5 5 7 8 11 9 10 13 10 18 18 13 5 9 9 10 7 5 8 9 9 9 7 7 7 7 4 5 3 3 3 3 5 10 9 8 9 7 6 4 9 8 8 6 6 10 13 9 5
5 10 11 11 8 4 5 9 18 10 14 11 4 9 9 11 12 10 8 7 8 6 6 8 8 8 6 7 5 5 3 5 6 8 10 8 2 7 9 8 11 14 12 21 14 10 6 6 9
6 8 8 12 12 6 15 3 10 8 9 15 11 10 10 10 9 8 9 9 8 8 8 7 8 7 6 6 5 4 5 8 8 9 12 10 9 15 20 13 13 16 14 13 11 5 11 6 6
8 8 11 9 5 2 6 1 6 5 2 4 17 23 13 7 7 7 5 6 5 6 7 6 8 3 2 1 2 3 5 7 7 10 9 7 3 1 3 4 9 12 9 10 6 9 6 11 6
9 8 6 7 5 6 14 9 2 9 13 9 8 9 10 9 8 9 9 9 9 10 8 4 3 2 4 4 3 3 5 6 8 8 9 6 3 3 3 1 9 6 9 9 10 12 14 7 5
4 1 5 5 4 12 8 6 3 9 10 8 6 4 8 10 8 7 7 6 7 7 7 8 7 6 6 6 6 5 6 4 6 8 8 4 3 5 6 7 10 15 10 8 7 6 8 11 10
2 3 2 2 5 5 5 5 3 6 8 6 4 5 6 7 8 7 8 8 8 8 8 7 7 7 8 8 8 7 7 6 6 9 10 5 4 5 8 10 15 11 8 7 7 7 10 10 12
7 6 1 2 3 6 5 8 11 3 8 7 3 6 8 4 3 6 7 8 6 6 6 7 8 9 11 10 9 10 8 8 7 7 7 7 6 6 7 9 9 8 7 8 8 5 7 8 3
6 6 5 3 5 5 5 6 4 11 5 0 4 4 7 8 5 5 5 6 7 7 5 6 8 10 11 11 13 13 13 13 8 7 6 6 6 8 8 7 7 8 6 6 5 4 4 6 5
14 10 1 5 7 3 3 18 10 9 8 12 3 4 5 5 5 5 6 6 5 7 5 6 9 11 12 12 12 13 13 14 11 7 7 6 7 8 8 7 7 5 5 3 5 3 5 6 5
Wind_Direction
322 306 294 10 35 79 276 292 264 49 27 16 73 76 89 48 73 121 78 111 123 127 134 130 135 134 133 133 130 129 129 131 128 125 122 121 115 115 110 114 113 115 117 121 123 119 111 108 106
322 304 324 307 79 6 287 280 91 169 62 50 100 100 63 65 39 82 42 134 130 131 131 127 137 138 137 138 137 134 132 134 131 130 130 130 128 125 121 123 124 124 126 127 129 129 123 121 119
285 209 50 140 234 224 261 358 29 119 98 67 95 67 65 98 53 99 107 132 130 129 125 133 134 139 138 141 141 140 141 142 142 141 138 136 132 128 125 126 126 129 132 133 134 135 130 132 132
319 26 335 92 266 274 266 276 46 37 48 84 105 83 83 56 87 129 121 135 132 136 125 136 137 141 141 143 144 146 147 147 149 149 149 147 144 138 136 136 136 138 139 136 134 134 136 139 145
231 334 309 279 271 269 277 291 119 59 21 67 76 102 100 89 61 117 137 140 141 132 136 139 140 145 150 148 150 152 151 151 154 154 156 154 151 149 149 145 148 146 144 140 143 145 147 150 160
328 131 5 283 281 298 327 316 70 50 49 21 49 111 81 73 33 13 135 146 139 140 143 146 147 149 153 152 154 157 154 154 157 159 161 159 158 158 156 155 158 155 153 151 153 154 157 166 178
168 74 241 285 294 306 292 352 35 35 73 44 72 78 126 73 0 342 305 138 143 141 142 148 151 152 155 155 155 160 155 155 158 161 163 163 164 167 165 163 166 163 159 159 162 165 167 179 186
182 120 274 262 278 296 354 23 70 38 70 11 35 88 168 179 69 339 339 240 151 152 150 154 154 154 153 163 163 164 160 159 161 166 167 167 172 174 173 167 172 169 165 168 171 174 177 187 195
287 5 241 247 257 277 10 10 359 17 23 32 11 330 168 165 109 19 349 343 126 161 156 159 162 165 158 156 169 168 165 164 167 170 171 168 173 178 180 176 178 177 176 179 179 182 186 194 203
134 163 238 250 336 337 16 8 347 15 345 334 339 325 340 2 82 68 356 325 329 159 157 152 153 160 166 162 158 154 172 165 172 170 174 174 179 183 188 189 185 184 184 186 187 189 194 198 202
228 207 248 284 298 355 349 332 343 351 324 295 317 328 358 7 12 33 12 300 312 353 158 170 160 164 170 170 160 162 164 169 174 180 174 190 196 195 199 193 189 188 193 190 192 190 197 200 209
219 244 276 290 304 16 328 322 319 303 268 288 314 304 330 342 347 348 335 307 325 33 105 154 159 167 186 141 172 172 170 174 180 187 181 183 213 198 199 192 184 185 189 191 192 197 204 213 218
169 256 281 285 321 297 292 278 263 268 281 283 272 298 346 340 330 324 304 297 301 324 135 140 136 141 135 140 173 173 182 182 187 187 186 182 196 209 193 179 184 192 192 197 197 199 202 213 222
308 317 314 312 299 299 307 298 359 296 289 298 304 254 251 235 252 292 297 284 297 295 95 118 93 115 130 165 187 202 197 189 197 191 195 189 193 200 197 186 189 193 198 199 200 199 204 214 215
334 338 317 270 242 233 208 319 268 260 278 243 265 295 272 269 236 230 236 258 251 295 32 169 147 146 152 210 193 198 173 223 205 205 198 197 194 200 191 196 189 193 199 198 202 207 200 208 221
243 259 240 272 215 207 114 252 261 269 304 304 278 250 227 234 228 228 231 232 298 292 237 181 165 84 154 127 276 296 213 207 238 263 217 203 199 203 208 199 201 184 198 192 202 203 194 201 205
243 234 326 334 71 40 135 251 242 245 252 264 263 259 247 235 234 230 225 216 229 213 223 209 190 165 154 151 129 355 320 269 240 212 217 232 212 199 202 207 200 201 180 193 189 196 165 179 197
338 350 330 317 311 326 310 295 302 276 264 269 266 278 267 240 228 223 222 212 209 209 198 202 195 193 174 89 100 340 320 288 268 253 215 187 249 255 204 201 189 188 177 185 176 172 182 173 187
339 329 313 295 278 286 284 299 309 310 302 288 279 261 270 259 341 57 23 238 191 58 76 90 94 83 70 33 15 349 303 289 291 276 251 194 194 208 272 212 195 179 192 186 186 173 179 199 182
298 279 276 276 333 343 328 304 296 283 276 279 273 235 124 66 28 52 60 63 73 77 69 57 48 54 101 121 219 189 233 268 261 281 296 273 197 202 204 193 275 209 170 201 180 185 165 202 179
301 324 339 321 328 321 312 297 300 301 298 285 244 148 96 91 61 79 66 66 61 70 78 86 81 64 31 347 334 322 316 313 303 282 279 268 281 257 211 176 190 303 327 293 211 190 192 197 206
358 343 329 316 331 282 16 291 296 271 282 321 199 97 95 64 57 53 55 67 92 80 76 78 73 69 59 40 21 349 293 290 279 279 281 255 162 325 254 213 212 197 206 217 226 191 175 175 210
258 283 271 270 268 292 283 213 273 43 4 344 15 48 70 75 72 52 47 57 34 32 55 69 66 47 36 36 29 10 332 312 289 294 299 298 222 207 197 191 204 219 210 214 221 168 176 190 184
300 349 317 272 238 267 273 274 307 53 103 23 16 10 36 47 66 51 60 73 46 72 98 107 111 122 101 34 336 332 314 311 315 312 298 293 312 281 7 248 213 237 243 217 236 258 268 201 170
22 2 336 349 357 220 359 349 319 86 72 86 67 22 21 17 27 34 32 16 10 12 2 22 45 239 236 207 231 276 297 300 298 305 310 288 303 341 263 334 304 256 245 232 229 203 215 246 204
298 260 159 280 322 291 308 236 235 117 110 92 92 57 10 8 15 356 2 5 11 9 4 357 349 341 326 295 266 271 274 269 289 296 301 298 228 214 258 256 232 253 235 224 203 216 192 213 220
3 327 226 315 278 300 246 304 330 85 46 100 93 44 34 347 335 2 5 9 2 355 350 350 347 330 316 297 277 257 262 268 280 290 289 280 256 222 249 240 252 241 233 237 218 211 213 189 219
178 225 43 343 315 280 278 312 253 158 19 99 64 13 313 318 350 358 357 353 348 344 324 356 12 3 346 336 340 326 282 260 258 270 287 289 282 258 245 234 239 242 234 237 231 214 218 207 212
332 323 303 175 175 212 304 254 308 336 42 146 187 224 279 290 355 341 332 332 323 315 344 13 360 351 342 337 334 331 325 301 273 261 270 288 291 279 253 256 251 241 236 239 249 250 189 124 123
250 252 101 99 296 262 258 273 282 271 313 311 195 302 300 327 310 331 320 294 306 298 15 5 353 342 329 322 318 313 307 311 278 261 267 282 287 282 272 244 256 265 270 239 211 147 100 103 123